This is the latest recevied weather packets stored in our database for station/object KE8WAY. If no packets are shown the sender has not sent any weather packets the latest 10 day(s).
| Time | Temp. | Humidity | Pressure | Rain* | Wind** | Luminosity | Snow |
|---|---|---|---|---|---|---|---|
| 1777722915 | 4.44° C | 79% | 1016.8 hPa | 0 mm | - | 63 W/m² | - |
| 1777722610 | 4.44° C | 79% | 1017.1 hPa | 0 mm | - | 56 W/m² | - |
| 1777722307 | 4.44° C | 77% | 1016.9 hPa | 0 mm | - | 51 W/m² | - |
| 1777722004 | 4.44° C | 79% | 1017 hPa | 0 mm | - | 43 W/m² | - |
| 1777721701 | 4.44° C | 83% | 1016.9 hPa | 0 mm | - | 34 W/m² | - |
| 1777721400 | 4.44° C | 83% | 1016.9 hPa | 0 mm | - | 26 W/m² | - |
| 1777721097 | 4.44° C | 81% | 1016.8 hPa | 0 mm | - | 17 W/m² | - |
| 1777720794 | 4.44° C | 82% | 1016.7 hPa | 0 mm | - | 9 W/m² | - |
| 1777720491 | 4.44° C | 83% | 1016.7 hPa | 0 mm | - | 5 W/m² | - |
| 1777720189 | 3.89° C | 81% | 1016.7 hPa | 0 mm | - | 3 W/m² | - |
| 1777719886 | 3.89° C | 86% | 1016.6 hPa | 0 mm | - | 3 W/m² | - |
| 1777719584 | 4.44° C | 81% | 1016.7 hPa | 0 mm | - | 3 W/m² | - |
| 1777719281 | 4.44° C | 79% | 1016.6 hPa | 0 mm | - | 3 W/m² | - |
| 1777718979 | 4.44° C | 79% | 1016.5 hPa | 0 mm | - | 2 W/m² | - |
| 1777718676 | 3.89° C | 79% | 1016.6 hPa | 0 mm | - | 1 W/m² | - |
| 1777718373 | 3.89° C | 79% | 1016.3 hPa | 0 mm | - | 1 W/m² | - |
| 1777718071 | 3.89° C | 79% | 1016.4 hPa | 0 mm | - | 0 W/m² | - |
| 1777717767 | 4.44° C | 78% | 1016.3 hPa | 0 mm | - | 0 W/m² | - |
| 1777717464 | 4.44° C | 78% | 1016.2 hPa | 0 mm | - | 0 W/m² | - |
| 1777717161 | 3.89° C | 78% | 1016.5 hPa | 0 mm | - | 0 W/m² | - |
| 1777716860 | 3.89° C | 80% | 1016.3 hPa | 0 mm | - | 0 W/m² | - |
| 1777716557 | 3.89° C | 79% | 1016.7 hPa | 0 mm | - | 0 W/m² | - |
| 1777716257 | 3.89° C | 79% | 1016.4 hPa | 0 mm | - | 0 W/m² | - |
| 1777715953 | 3.89° C | 79% | 1016.3 hPa | 0 mm | - | 0 W/m² | - |
| 1777715651 | 3.89° C | 79% | 1016.5 hPa | 0 mm | - | 0 W/m² | - |
* Rain latest hour (hover to see other rain measurements)
** Current wind speed in m/s (hover to see current wind gust speed)